STARLINK-37288, 68551

Orbit data source: Space-Track

STARLINK-37288, 68551 is a payload satellite owned by SpaceX/Seattle (US) in LEO that was launched on Thu, 02 Apr 2026 UTC via an FALCON 9 launch vehicle from the Air Force Eastern Test Range (AFETR). Payload-class satellites include a variety of spacecraft equipped with specific instruments for various scientific and technological missions. These include communications satellites like Starlink; space stations such as the ISS; scientific satellites like the Hubble; Earth observation satellites from companies like Planet Labs, Umbra, and HawkEye 360; GPS; miniature CubeSats for education and research; and military/defense satellites.

Loading next visibility...
Identifier
68551, 2026-070K
Orbit
LEO
Country
Flag of USUS
Related business
Manufacturer
SpaceX/Seattle
Mission
Operational spacecraft
Bus & Motor
STARLINK V2MO, Unknown motor
Mass
575 kg wet, ~530 kg dry
Launch date (UTC)
2026-04-02 (2 months ago)
Launch vehicle
FALCON 9
Launch site
Air Force Eastern Test Range (AFETR)
Object type
Payload
Rocket body
Debris
Shape & HBR
Unknown shape, 14.5 m
Radar Cross Section
RCS unknown

Expand to show TLE details & history
Last TLE update: 5 hours ago

TLE from 5 hours ago
0 STARLINK-37288
1 68551U 26070K   26138.82011551 -.00374458  00000-0 -73684-2 0  9996
2 68551  53.1582  36.7267 0001666  32.2182 327.8928 15.48060177  7295
Epoch: 2026-05-18T19:40Z
TLE epoch observation values (Epoch: 2026-05-18T19:40:57.980Z)
Latitude
-0°
Longitude
-135.01778°
Altitude
422.348 km
Speed
7.66 km/s
True Right ascension
02h 26m 54s
True Declination
0° 00' 00"
Sunlit
Object was in daylight at epoch
Visualization orbit readout
Latitude
Unknown
Longitude
Unknown
Altitude
Unknown
Speed
Unknown
Apparent Right ascension
Unknown
Apparent Declination
Unknown
Sunlit
N/A
Visualization observer readout
Local Sidereal Time
09:56:10
Azimuth
Unknown
Elevation
Unknown
Doppler factor
Unknown
Orbital elements
Apogee altitude
423.793 km
Perigee altitude
421.527 km
Semi-major axis
6,800.797 km
Eccentricity
0.00017
Inclination
53.1582°
RAAN
36.7267°
Arg. of periapsis
32.2182°
True anomaly
327.88265°
Mean anomaly
327.8928°
Eccentric anomaly
327.88773°
Mean motion
3.86993 °/min
Orbital period
93.02 mins
BSTAR
-0.0073684
Loading maneuver chart data...
Computing Atmospheric mass density...
Loading historical data...
Loading historical data...
Loading historical data...
Loading historical data...
Loading historical data...
Loading historical data...
Loading historical data...

Documentation

Showing up to 5 results
|